Volver al catálogo

STARLINK-33737

ActivoComunicacionesVLEO
NORAD 63456·PAYLOAD·🇺🇸 United States

Lanzado Apr 4, 2025 desde Vandenberg Space Force Base

Loading…

Próximos Pases (próximas 24 horas)

TLE

ActualizadoSource: CelesTrak SupGP

Época: Sep 15, 2026, 03:39 UTC

1 63456C 25069Z   26258.15256944  .00060838  00000+0  17977-2 0  2580
2 63456  53.1588 334.6905 0001191  93.2726 174.0418 15.34356912    12

Sigue STARLINK-33737 en tiempo real con AllMySat

Download on the App Store